Location: Albany
(35.0000°S, 118.0000°E)
Time: 07:28:53
(UTC-04:00)

Vanguard 3 - Visible Passes

Search period start: 25 March 2017 00:00
Search period end: 04 April 2017 00:00
Orbit: 508 x 3265 km, 33.3° (Epoch: 23 March)

Date Brightness Start Highest point End Pass type
(mag) Time Alt. Az. Time Alt. Az. Time Alt. Az.
25 Mar 10.2 16:53:48 10° NNE 16:58:36 17° NE 17:04:59 10° E visible
26 Mar 9.9 17:48:38 10° NNW 17:55:47 36° NE 18:07:32 10° E visible
27 Mar 9.9 16:37:56 10° N 16:42:39 18° NE 16:49:07 10° E visible
28 Mar 9.6 17:33:17 10° NNW 17:39:53 39° NE 17:51:03 10° E visible
29 Mar 9.6 16:22:15 10° N 16:26:48 20° NE 16:33:12 10° E visible
30 Mar 9.2 17:18:01 10° NW 17:24:08 42° NNE 17:34:36 10° E visible
31 Mar 9.3 16:08:01 15° N 16:11:04 22° NE 16:17:18 10° E visible
01 Apr 8.8 17:03:26 14° NW 17:08:29 45° NNE 17:18:14 10° E visible
02 Apr 8.9 15:54:13 22° NNE 15:55:26 23° NE 16:01:26 10° E visible
03 Apr 8.4 16:49:34 23° NW 16:52:58 48° NNE 17:01:58 10° E visible
